Regional Weather Roundup
Issued by NWS Sioux Falls, SD

Home | Current Version | Previous Version | Text Only | Print | Product List | Glossary On
Versions: 1 2 3 4 5 6 7 8 9 10 11 12 13 14 15 16 17 18 19 20 21 22 23 24 25 26 27 28 29 30 31 32 33 34 35 36 37 38 39 40 41 42 43 44 45 46 47 48 49 50
498
ASUS43 KFSD 192110
RWRFSD

WEATHER ROUNDUP FOR SE SOUTH DAKOTA/SW MINNESOTA/NW IOWA
NATIONAL WEATHER SERVICE SIOUX FALLS SD
300 PM CST SUN NOV 19 2017

NOTE: "FAIR" INDICATES FEW OR NO CLOUDS BELOW 12,000 FEET WITH NO
SIGNIFICANT WEATHER AND OR OBSTRUCTIONS TO VISIBILITY.


SDZ038>040-050-052>070-192200-
SOUTHEAST SOUTH DAKOTA

CITY           SKY/WX    TMP DP  RH WIND       PRES   REMARKS
BROOKINGS      CLOUDY    48  23  37 SW14G21   29.87F
CHAMBERLAIN    SUNNY     55  26  33 S7        29.86F
HURON          CLOUDY    52  21  29 SW13      29.85F
MADISON        FAIR      48  23  37 SW16      29.88F
MITCHELL       CLOUDY    53  24  32 SW10      29.89F
SIOUX FALLS    PTSUNNY   52  26  36 SW12      29.90F
WINNER         FAIR      60  18  19 W7        29.87F
YANKTON        CLOUDY    53  26  35 SW10      29.91F
$$

MNZ071-072-080-081-089-090-097-098-192200-
SOUTHWEST MINNESOTA

CITY           SKY/WX    TMP DP  RH WIND       PRES   REMARKS
FAIRMONT       SUNNY     49  25  39 W12       29.94F
JACKSON        SUNNY     48  23  37 W14       29.94F
LUVERNE        SUNNY     48  21  34 SW15G21   29.92F
MARSHALL       SUNNY     51  23  33 SW18      29.88F
MONTEVIDEO     CLOUDY    54  25  32 W13G18    29.86F
PIPESTONE      SUNNY     46  23  39 SW13      29.89F
REDWOOD FALLS  SUNNY     51  23  33 SW13      29.88F
WINDOM         SUNNY     48  27  43 SW15G21   29.92F
WORTHINGTON    SUNNY     48  25  40 SW14      29.92F
$$

IAZ001>003-012>014-020>022-031-032-NEZ013-014-SDZ071-192200-
NORTHWEST IOWA

CITY           SKY/WX    TMP DP  RH WIND       PRES   REMARKS
CHEROKEE       SUNNY     49  28  44 SW12      29.97F
DENISON        SUNNY     50  27  40 SW16G23   30.00F
ESTHERVILLE    SUNNY     48  26  42 W16       29.94F
LE MARS        SUNNY     54  25  32 SW10      29.95F
ORANGE CITY    SUNNY     52  30  43 SW14      29.94F
SHELDON        SUNNY     50  27  40 S14       29.93F
SIOUX CITY     SUNNY     54  24  31 SW14      29.96F
SPENCER        SUNNY     50  25  37 SW15      29.96F
STORM LAKE     SUNNY     48  27  43 SW14      29.97F
$$

ABBREVIATIONS USED IN REMARKS
   TC - TEMPERATURE IN CELSIUS
  WCI - WIND CHILL INDEX
   HX - HEAT INDEX
  VSB - VISIBILITY





USA.gov is the U.S. government's official web portal to all federal, state and local government web resources and services.